Location: Stockholm
(59.3330°N, 18.0500°E)
Time: 08:01:06
(UTC+02:00)

AO-109 - Pass Details

Date: 03 April 2023
Orbit: 441 x 460 km, 60.7° (Epoch: 06 June)

Event Time Altitude Azimuth Distance (km) Brightness Sun altitude
Rises 20:43:52 0° 290° (WNW) 2,445 ? -9.1°
Reaches altitude 10° 20:46:41 10° 265° (W) 1,567 ? -9.4°
Maximum altitude 20:48:39 15° 231° (SW) 1,313 ? -9.7°
Drops below altitude 10° 20:50:37 10° 196° (SSW) 1,559 ? -9.9°
Enters shadow 20:52:54 - 174° (S) 2,241 ? -10.1°
